Location: Unspecified
(0.0000°N, 0.0000°E)
Time: 09:49:43
(UTC+02:00)

Delta 168 - Visible Passes

Search period start: 02 April 2015 00:00
Search period end: 12 April 2015 00:00
Orbit: 394 x 2095 km, 25.3° (Epoch: 01 April)

Date Brightness Start Highest point End Pass type
(mag) Time Alt. Az. Time Alt. Az. Time Alt. Az.
02 Apr 5.6 05:14:26 49° SSE 05:14:26 49° SSE 05:23:32 10° SE visible
02 Apr 6.3 07:04:46 16° WSW 07:12:19 32° SSW 07:23:15 10° SE visible
03 Apr 5.9 05:08:50 40° SSE 05:08:50 40° SSE 05:16:39 10° SE visible
03 Apr 6.3 06:59:10 16° WSW 07:05:59 29° SSW 07:16:23 10° SE visible
04 Apr 6.1 05:03:10 33° SSE 05:03:10 33° SSE 05:09:40 10° SE visible
04 Apr 6.3 06:53:30 16° SW 06:59:41 26° SSW 07:09:29 10° SE visible
05 Apr 6.4 04:57:28 26° SSE 04:57:28 26° SSE 05:02:39 10° SE visible
05 Apr 6.4 06:47:47 16° SW 06:53:24 23° S 07:02:33 10° SE visible
06 Apr 6.6 04:51:41 21° SSE 04:51:41 21° SSE 04:55:36 10° SE visible
06 Apr 6.4 06:42:01 15° SW 06:47:10 21° S 06:55:37 10° SE visible
07 Apr 6.8 04:45:53 17° SSE 04:45:53 17° SSE 04:48:29 10° SE visible
07 Apr 6.5 06:36:12 14° SW 06:40:56 19° S 06:48:40 10° SE visible
08 Apr 6.9 04:40:02 13° SSE 04:40:02 13° SSE 04:41:20 10° SE visible
08 Apr 6.5 06:30:22 13° SSW 06:34:43 17° S 06:41:42 10° SE visible
09 Apr 6.5 06:24:29 12° SSW 06:28:30 16° S 06:34:44 10° SSE visible
10 Apr 6.6 06:18:34 12° SSW 06:22:17 15° S 06:27:47 10° SSE visible
11 Apr 6.6 06:12:39 11° SSW 06:16:04 13° S 06:20:53 10° SSE visible
